Home > Weather > Kerman > Past weeks

Flag for Iran Past Weather in Kerman, Iran — Yesterday and Last 2 Weeks

Now
95 °F

Sunny.


Feels Like: 90 °F
Forecast: 55 / 93 °F
Wind: 12 mph from West

Location: Kerman Airport

Current Time: May 30, 2016 at 7:02:42 PM

Latest Report: May 30, 2016 at 6:30 PM


Visibility: 10 mi

Pressure: 29.92 "Hg (24.61 "Hg at 1762m altitude)

Humidity: 5%

Dew Point: 16 °F

Location of KermanLocation

Past Weather in Kerman — Graph

°F

Kerman Temperature Yesterday

Maximum temperature yesterday: 97 °F (at 3:30 PM)
Minimum temperature yesterday: 59 °F (at 5:30 AM)
Average temperature yesterday: 82 °F

High & Low Weather Summary for the Past Weeks

 TemperatureHumidityPressure
High97 °F (May 17, 3:20 PM)68% (May 19, 6:30 AM)30.21 "Hg (May 19, 6:30 AM)
Low55 °F (May 26, 5:30 AM)1% (May 25, 9:30 PM)29.83 "Hg (May 25, 4:30 PM)
Average79 °F16%30.03 "Hg
* Reported May 15 5:30 PM — May 30 5:30 PM, Kerman, Weather by CustomWeather, © 2016

Note: Actual official high and low records may vary slightly from our data, if they occured in-between our weather recording intervals... More about our weather records

Advertising

Kerman Weather History for the Previous 24 Hours

Scroll right to see more
 ConditionsComfort  
Time TempWeatherWind HumidityBarometerVisibility
5:30 PM
Mon, May 30
95 °FSunny.12 mph6%29.92 "Hg10 mi
4:30 PM97 °FSunny.14 mph5%29.92 "Hg10 mi
3:30 PM95 °FSunny.12 mph6%29.92 "Hg10 mi
2:30 PM93 °FSunny.7 mph6%29.95 "Hg10 mi
1:30 PM93 °FSunny.14 mph6%29.98 "Hg10 mi
12:30 PM91 °FSunny.7 mph7%30.01 "Hg10 mi
11:30 AM88 °FSunny.12 mph7%30.01 "Hg10 mi
10:30 AM88 °FSunny.12 mph7%30.04 "Hg10 mi
9:30 AM84 °FSunny.5 mph8%30.04 "Hg10 mi
8:30 AM79 °FSunny.5 mph8%30.04 "Hg10 mi
7:30 AM72 °FSunny.No wind13%30.04 "Hg10 mi
6:30 AM63 °FClear.5 mph16%30.01 "Hg10 mi
5:30 AM61 °FClear.7 mph20%29.98 "Hg10 mi
4:30 AM63 °FClear.7 mph17%29.98 "Hg10 mi
3:30 AM63 °FClear.5 mph17%29.98 "Hg10 mi
2:30 AM64 °FClear.No wind15%29.98 "Hg10 mi
1:30 AM70 °FClear.No wind12%30.01 "Hg10 mi
12:30 AM72 °FClear.No wind11%30.01 "Hg10 mi
11:30 PM
Sun, May 29
73 °FClear.No wind9%30.01 "Hg10 mi
10:30 PM77 °FClear.No wind8%30.01 "Hg10 mi
9:30 PM84 °FClear.9 mph5%30.01 "Hg10 mi
8:30 PM86 °FSunny.12 mph4%30.01 "Hg10 mi
7:30 PM88 °FSunny.12 mph3%29.98 "Hg10 mi
Weather by CustomWeather, © 2016

See weather overviewHow to use our weather pages